Location: Brno
(49.2000°N, 16.6330°E)
Time: 23:37:22
(UTC+02:00)

Cosmos 2227 - Visible Passes

Search period start: 22 August 2014 00:00
Search period end: 01 September 2014 00:00
Orbit: 834 x 863 km, 71.0° (Epoch: 21 August)

Date Brightness Start Highest point End Pass type
(mag) Time Alt. Az. Time Alt. Az. Time Alt. Az.
22 Aug 7.5 01:57:28 10° N 01:59:06 11° NNE 02:00:44 10° NE visible
22 Aug 6.1 03:40:05 10° NNW 03:45:16 33° NE 03:50:25 10° ESE visible
22 Aug 7.2 22:08:11 10° WNW 22:11:44 16° NNW 22:15:17 10° N visible
23 Aug 7.5 01:44:30 10° N 01:46:05 11° NNE 01:47:39 10° NE visible
23 Aug 6.0 03:27:05 10° NNW 03:32:16 33° NE 03:37:23 10° ESE visible
23 Aug 4.4 05:11:09 10° NW 05:16:46 55° WSW 05:22:20 10° S visible
23 Aug 7.2 21:55:08 10° WNW 21:58:42 17° NNW 22:02:18 10° N visible
24 Aug 7.4 01:31:32 10° N 01:33:03 11° NNE 01:34:34 10° NE visible
24 Aug 6.0 03:14:05 10° NNW 03:19:15 32° NE 03:24:22 10° ESE visible
24 Aug 4.3 04:58:08 10° NW 05:03:46 56° WSW 05:09:21 10° S visible
24 Aug 7.1 21:42:05 10° WNW 21:45:41 17° NNW 21:49:18 10° N visible
25 Aug 7.4 01:18:34 10° N 01:20:01 11° NNE 01:21:29 10° NE visible
25 Aug 6.0 03:01:05 10° NNW 03:06:14 32° NE 03:11:20 10° ESE visible
25 Aug 4.3 04:45:08 10° NW 04:50:46 57° WSW 04:56:21 10° S visible
25 Aug 7.1 21:29:02 10° WNW 21:32:40 17° NW 21:36:19 10° N visible
26 Aug 7.3 01:05:35 10° N 01:07:00 11° NNE 01:08:24 10° NE visible
26 Aug 6.0 02:48:05 10° NNW 02:53:13 32° NE 02:58:18 10° ESE visible
26 Aug 4.3 04:32:07 10° NW 04:37:46 57° WSW 04:43:21 10° S visible
26 Aug 7.1 21:15:59 10° WNW 21:19:38 17° NW 21:23:19 10° N visible
27 Aug 7.3 00:52:37 10° N 00:53:58 11° NNE 00:55:19 10° NE visible
27 Aug 6.0 02:35:05 10° NNW 02:40:12 31° NE 02:45:16 10° ESE visible
27 Aug 4.3 04:19:06 10° NW 04:24:46 58° WSW 04:30:21 10° S visible
27 Aug 7.0 21:02:56 10° WNW 21:06:37 17° NW 21:10:19 10° N visible
28 Aug 7.2 00:39:39 10° N 00:40:56 11° NNE 00:42:13 10° NE visible
28 Aug 6.0 02:22:05 10° NNW 02:27:11 31° NE 02:32:14 10° ESE visible
28 Aug 4.2 04:06:06 10° NW 04:11:45 59° WSW 04:17:21 10° S visible
28 Aug 7.0 20:49:53 10° WNW 20:53:35 17° NW 20:57:19 10° N visible
29 Aug 7.2 00:26:42 10° N 00:27:54 11° NNE 00:29:07 10° NNE visible
29 Aug 5.9 02:09:05 10° NNW 02:14:10 31° NE 02:19:12 10° ESE visible
29 Aug 4.2 03:53:05 10° NW 03:58:45 60° WSW 04:04:21 10° S visible
29 Aug 6.9 20:36:50 10° WNW 20:40:34 17° NW 20:44:19 10° N visible
30 Aug 7.2 00:13:44 10° N 00:14:53 11° NNE 00:16:01 10° NNE visible
30 Aug 5.9 01:56:05 10° NNW 02:01:09 30° NE 02:06:10 10° ESE visible
30 Aug 4.2 03:40:04 10° NW 03:45:45 60° WSW 03:49:27 22° S visible
30 Aug 6.9 20:23:46 10° WNW 20:27:32 18° NW 20:31:20 10° N visible
31 Aug 7.1 00:00:47 10° N 00:01:51 11° NNE 00:02:54 10° NNE visible
31 Aug 5.9 01:43:04 10° NNW 01:48:07 30° NE 01:52:38 12° ESE visible
31 Aug 4.2 03:27:03 10° NW 03:32:44 61° WSW 03:34:27 43° S visible
31 Aug 6.9 20:10:43 10° WNW 20:14:31 18° NW 20:18:20 10° N visible
31 Aug 7.1 23:47:50 10° N 23:48:49 10° NNE 23:49:48 10° NNE visible
